Regional Weather Roundup
Issued by NWS Green Bay, WI

Home | Current Version | Previous Version | Text Only | Print | Product List | Glossary On
Versions: 1 2 3 4 5 6 7 8 9 10 11 12 13 14 15 16 17 18 19 20 21 22 23 24 25 26 27 28 29 30 31 32 33 34 35 36 37 38 39 40 41 42 43 44 45 46 47 48 49 50
000
ASUS43 KGRB 281459
RWRGRB

NORTH-CENTRAL AND NORTHEAST WISCONSIN REGIONAL WEATHER ROUNDUP
NATIONAL WEATHER SERVICE GREEN BAY WI
1000 AM CDT MON JUL 28 2014

WIZ005-009-010>012-018-019-281600-
NORTH CENTRAL WISCONSIN

CITY           SKY/WX    TMP DP  RH WIND       PRES   REMARKS
IRONWOOD       MOSUNNY   63  55  77 N9        30.12F
MANITOWISH WTR NOT AVBL
ARBOR VITAE    NOT AVBL
EAGLE RIVER    NOT AVBL
LAND O LAKES   NOT AVBL
RHINELANDER    SUNNY     62  52  69 NW9       30.14S
PHILLIPS       NOT AVBL
ANTIGO         NOT AVBL
TOMAHAWK       NOT AVBL
MERRILL        NOT AVBL
$$

WIZ013-073-281600-
NORTHEAST WISCONSIN

CITY           SKY/WX    TMP DP  RH WIND       PRES   REMARKS
IRON MOUNTAIN  SUNNY     61  49  64 NW3       30.09S
MARINETTE      CLOUDY    57  45  62 N7        30.10S
$$

WIZ017-030-035>037-045-281600-
CENTRAL WISCONSIN

CITY           SKY/WX    TMP DP  RH WIND       PRES   REMARKS
MEDFORD        NOT AVBL
WAUSAU         PTSUNNY   64  50  60 NW10      30.12F
MOSINEE        PTSUNNY   63  54  72 NW10      30.15S
MARSHFIELD     PTSUNNY   64  52  64 NW9       30.16R
WISC RAPIDS    CLOUDY    64  52  64 MISG      30.16S
STEVENS POINT  NOT AVBL
WAUPACA        NOT AVBL
SHAWANO        NOT AVBL
CLINTONVILLE   NOT AVBL
$$

WIZ038-039-048-051-281600-
FOX VALLEY

CITY           SKY/WX    TMP DP  RH WIND       PRES   REMARKS
NWS GREEN BAY  CLOUDY    62  47  57 N8        30.11S
APPLETON       PTSUNNY   61  46  59 N13       30.12S
OSHKOSH        SUNNY     62  49  62 N13       30.12S
FOND DU LAC    SUNNY     62  48  60 N10G20    30.12S
$$

WIZ022-050-052-281600-
EAST CENTRAL WISCONSIN

CITY           SKY/WX    TMP DP  RH WIND       PRES   REMARKS
STURGEON BAY   PTSUNNY   57  45  62 N15       30.10S
MANITOWOC      NOT AVBL
SHEBOYGAN      SUNNY     62  48  60 N10G17    30.09R
$$

LMZ563-521-522-541>543-281600-
LAKESHORE

STATION/POSITION TIME  TEMP    WIND        PRES    VSBY  WAVE
                       AIR SEA DIR/SP/G                  HT/PER
                 (UTC) (F)     (DEG/KT/KT) (MB)    (MI)  (FT/S)
SHEBOYGAN LKSHOR 1400   54     350/ 11/ 12 1019.0R
KEWAUNEE LKSHORE 1400   59     360/ 12/ 17 1019.4R
NORTHPORT PIER   1400   55     350/ 14/ 16 1019.0R
N MID LAKE BUOY  1400   53 53  350/ 16/ 19 1017.4R         4/ 5
S GREEN BAY BUOY 1400   57 66   10/ 14     1020.0
CHAMBERS ISLAND  1400   57     360/ 13/ 17 1019.3R
MENOMINEE LKSHOR 1400   56      10/  9/ 11 1019.9R
$$


USA.gov is the U.S. government's official web portal to all federal, state and local government web resources and services.